Regional Weather Roundup
Issued by NWS Newport/Morehead, NC

Current Version | Previous Version | Text Only | Print | Product List | Glossary On
Versions: 1 2 3 4 5 6 7 8 9 10 11 12 13 14 15 16 17 18 19 20 21 22 23 24 25 26 27 28 29 30 31 32 33 34 35 36 37 38 39 40 41 42 43 44 45 46 47 48 49 50
992 ASUS42 KMHX 202025 RWRMHX WEATHER ROUNDUP FOR EASTERN NORTH CAROLINA NATIONAL WEATHER SERVICE NEWPORT/MOREHEAD CITY NC 400 PM EDT SUN MAY 20 2018 NOTE: "FAIR" INDICATES FEW OR NO CLOUDS BELOW 12,000 FEET WITH NO SIGNIFICANT WEATHER AND/OR OBSTRUCTIONS TO VISIBILITY NCZ015>017-031-032-045>047-102-103-202100- NORTH COAST CITY SKY/WX TMP DP RH WIND PRES REMARKS EDENTON FAIR 86 72 62 SW8 30.08F ELIZABETH CITY FAIR 84 73 69 S14 30.07F KITTY HAWK FAIR 80 70 70 SW7G16 30.08F MANTEO PTSUNNY 79 71 75 SW20 30.10S $$ NCZ045>047-081-094-103-104-202100- CENTRAL COAST CITY SKY/WX TMP DP RH WIND PRES REMARKS FRISCO FAIR 77 71 82 SW14G23 30.14R $$ NCZ095-097-098-100-101-202100- SOUTHERN COAST CITY SKY/WX TMP DP RH WIND PRES REMARKS BEAUFORT CLOUDY 76 71 85 SW17 30.14F CEDAR ISLAND NOT AVBL JACKSONVILLE FAIR 79 74 84 S6 30.12F PINEY ISLAND NOT AVBL WILMINGTON FAIR 79 69 71 SW10 30.14S $$ NCZ011>013-027>030-043-044-078>080-089-090>093-098-202100- COASTAL PLAIN CITY SKY/WX TMP DP RH WIND PRES REMARKS AHOSKIE FAIR 81 73 75 CALM 30.08F CLINTON FAIR 84 72 66 SW7 30.12S ELIZABETHTOWN FAIR 82 71 71 S10 30.12F GOLDSBORO FAIR N/A N/A N/A SW9 30.10F GREENVILLE FAIR 82 70 65 W6 30.11F HAVELOCK MOSUNNY 82 72 71 SW18G24 30.13S KENANSVILLE PTSUNNY 84 72 65 SW5 30.11F KINSTON FAIR 84 70 61 SW8 30.10F NEW BERN FAIR 78 71 79 SW8 30.12F RICHLANDS PTSUNNY 79 73 82 S12 30.13S ROCKY MOUNT PTSUNNY 81 72 74 SW7 30.11F WASHINGTON PTSUNNY 84 70 64 CALM 30.09F WHITEVILLE FAIR 79 71 76 S10 30.13S $$ AMZ130-135-150-152-154-156-158-170-250-252-270-ANZ085-086-088-633-658-670-202100- MARINE OBSERVATIONS STATION/POSITION TIME TEMP WIND PRES WAVE SWELL AIR SEA DIR/SP/G HT/PER HT/PER (UTC) (F) (DEG/KT/KT) (MB) (FT/S) (FT/S) CHESAPEAKE LIGHT NOT AVBL 64 E VA BEACH 1950 71 66 210/ 16/ 17 1019.1 5/ 6 3/ 8 DUCK 2000 80 58 220/ 16/ 19 1018.3 2 E DUCK 2000 62 N/A 3/ 6 OREGON INLET 2000 76 76 190/ 23/ 28 1019.1 13E OREGON INLT 1948 65 N/A 5/ 7 3/ 7 HATTERAS CG 2000 75 75 200/ 12/ 18 1020.2 DIAMOND BUOY 2010 76 76 220/ 21/ 27 1020.9 CAPE LOOKOUT 2000 210/ 11/ 13 1021.1 BEAUFORT LAB 2000 76 76 220/ 7/ 14 1021.0 30 SE NEW RVR IN 2008 76 210/ 12/ 16 1020.9 30 SE NEW RVR IN 2000 76 N/A 6/ 7 2/14 27 SE WRIGHTSVLE 2008 75 74 220/ 12/ 17 1021.2 5 SE WRIGHTSVLE NOT AVBL 225 S CAPE HAT 2010 77 170/ 12/ 16 1022.7 41 SE CHARLESTON 2010 74 200/ 10/ 12 1021.1 $$

USA.gov is the U.S. government's official web portal to all federal, state and local government web resources and services.